Change the Weather History Date:

Friday, October 12, 2012

  Actual Average Record
Temperature  
Mean Temperature 23 °F 28 °F  
Max Temperature 32 °F 36 °F 58 °F (1923)
Min Temperature 14 °F 20 °F -7 °F (1927)
Degree Days  
Heating Degree Days 42 37  
Month to date heating degree days 350 393  
Since 1 July heating degree days 1324 1387  
Cooling Degree Days 0 0  
Month to date cooling degree days 0 0  
Year to date cooling degree days 34 61  
Moisture  
Dew Point 11 °F    
Average Humidity 60    
Maximum Humidity 84    
Minimum Humidity 27    
Precipitation  
Precipitation 0.00 in 0.02 in 0.26 in (1996)
Month to date precipitation 0.92 0.34  
Year to date precipitation 8.68 9.01  
Snow  
Snow 0.00 in 0.30 in 4.30 in (1996)
Month to date snowfall T 3.1  
Since 1 July snowfall T 4.9  
Since 1 September snowfall T 4.9  
Snow Depth 0.00 in    
Sea Level Pressure  
Sea Level Pressure 29.59 in    
Wind  
Wind Speed 4 mph (NNE)    
Max Wind Speed 14 mph    
Max Gust Speed -    
Visibility 10 miles    
Events      
T = Trace of Precipitation, MM = Missing Value Source: NWS Daily Summary

Daily Weather History Graph

Daily Weather History Graph

Search for Another Location

Airport or City:

Trip Planner

Search our weather history database for the weather conditions in past years. The results will help you decide how hot, cold, wet, or windy it might be!

Date:

Astronomy

Oct. 12, 2012 Rise Set
Actual Time 8:36 AM AKDT 6:37 PM AKDT
Civil Twilight 7:47 AM AKDT 7:26 PM AKDT
Nautical Twilight 6:50 AM AKDT 8:23 PM AKDT
Astronomical Twilight 5:51 AM AKDT 9:21 PM AKDT
Moon 4:35 AM AKDT (10/12) 5:33 PM AKDT (10/12)
Length of Visible Light 11h 39m
Length of Day
10h 00m
Waning Crescent, 10% of the Moon is Illuminated
Oct 12
Waning Crescent
Oct 15
New
Oct 21
First Quarter
Oct 29
Full
Nov 6
Last Quarter

Hourly Weather History & Observations

Time (AKDT) Temp. Windchill Dew Point Humidity Pressure Visibility Wind Dir Wind Speed Gust Speed Precip Events Conditions
12:53 AM 18.0 °F - 10.0 °F 71% 29.75 in 10.0 mi Calm Calm - N/A   Clear
1:53 AM 16.0 °F 8.8 °F 9.0 °F 74% 29.73 in 10.0 mi ENE 4.6 mph - N/A   Partly Cloudy
2:53 AM 17.1 °F - 10.0 °F 74% 29.72 in 10.0 mi Calm Calm - N/A   Partly Cloudy
3:53 AM 18.0 °F - 12.0 °F 78% 29.69 in 10.0 mi Calm Calm - N/A   Mostly Cloudy
4:53 AM 19.0 °F - 10.9 °F 71% 29.68 in 10.0 mi Calm Calm - N/A   Mostly Cloudy
5:53 AM 19.0 °F - 10.0 °F 68% 29.66 in 10.0 mi Calm Calm - N/A   Mostly Cloudy
6:53 AM 18.0 °F - 10.9 °F 74% 29.65 in 10.0 mi Calm Calm - N/A   Mostly Cloudy
7:53 AM 15.1 °F 7.7 °F 10.9 °F 84% 29.63 in 10.0 mi NNE 4.6 mph - N/A   Mostly Cloudy
8:53 AM 18.0 °F 11.1 °F 10.9 °F 74% 29.62 in 10.0 mi NE 4.6 mph - N/A   Mostly Cloudy
9:53 AM 19.9 °F 14.9 °F 10.0 °F 65% 29.60 in 10.0 mi ENE 3.5 mph - N/A   Mostly Cloudy
10:53 AM 21.0 °F 12.4 °F 10.9 °F 65% 29.59 in 10.0 mi NE 6.9 mph - N/A   Mostly Cloudy
11:53 AM 24.1 °F 19.7 °F 10.0 °F 55% 29.58 in 10.0 mi ENE 3.5 mph - N/A   Mostly Cloudy
12:53 PM 26.1 °F 21.9 °F 10.0 °F 51% 29.57 in 10.0 mi North 3.5 mph - N/A   Mostly Cloudy
1:53 PM 28.0 °F 22.8 °F 10.9 °F 49% 29.55 in 10.0 mi NNE 4.6 mph - N/A   Mostly Cloudy
2:53 PM 30.9 °F - 10.9 °F 43% 29.54 in 10.0 mi Calm Calm - N/A   Scattered Clouds
3:53 PM 32.0 °F 25.6 °F 10.9 °F 42% 29.52 in 10.0 mi ENE 6.9 mph - N/A   Scattered Clouds
4:53 PM 30.9 °F 22.8 °F 12.0 °F 46% 29.52 in 10.0 mi NNE 9.2 mph - N/A   Scattered Clouds
5:53 PM 28.9 °F 18.2 °F 12.9 °F 51% 29.52 in 10.0 mi NNE 13.8 mph - N/A   Scattered Clouds
6:53 PM 26.1 °F 15.0 °F 12.0 °F 55% 29.52 in 10.0 mi NNE 12.7 mph - N/A   Scattered Clouds
7:53 PM 23.0 °F 11.7 °F 10.9 °F 60% 29.52 in 10.0 mi NNE 11.5 mph - N/A   Scattered Clouds
8:53 PM 21.2 °F 10.1 °F 10.4 °F 63% 29.49 in 10.0 mi North 10.4 mph - N/A   Clear
9:53 PM 21.9 °F 11.7 °F 10.0 °F 60% 29.52 in 10.0 mi North 9.2 mph - N/A   Clear
10:53 PM 23.0 °F 14.7 °F 10.9 °F 60% 29.51 in 10.0 mi North 6.9 mph - N/A   Mostly Cloudy
11:53 PM 25.0 °F 15.5 °F 12.0 °F 58% 29.50 in 10.0 mi North 9.2 mph - N/A   Mostly Cloudy